Location: Boise
(43.6140°N, 116.2030°W)
Time: 21:15:50
(UTC-06:00)

Daily predictions for brighter satellites

Satellite Brightness Start Highest point End
(mag) Time Altitude Azimuth Time Altitude Azimuth Time Altitude Azimuth
Cosmos 2208 Rocket 4.4 20:53:37 10° S 20:58:37 44° ESE 21:03:43 10° NNE
EP 2 4.3 20:58:33 10° SSW 21:01:05 57° ESE 21:03:51 10° NE
CZ-4 DEB 4.4 21:00:10 10° ESE 21:02:23 18° ENE 21:04:36 10° NNE
Meteor 1-5 Rocket 4.2 20:58:48 10° S 21:04:01 57° E 21:09:21 10° NNE
NOSS 3-4 (A) 3.9 20:59:38 10° NW 21:06:39 83° NE 21:14:05 10° SE
NOSS 3-4 (C) 3.9 20:59:45 10° NW 21:06:46 82° NE 21:14:12 10° SE
Cosmos 2082 4.0 21:01:20 10° NNW 21:06:50 53° ENE 21:12:18 10° SE
Cosmos 2297 Rocket 2.7 21:03:32 10° NNW 21:08:56 43° ENE 21:14:17 10° SE
Cosmos 1570 Rocket 4.0 21:10:23 10° S 21:15:39 68° ESE 21:20:53 10° NNE
CZ-4B DEB 3.6 21:14:26 10° S 21:17:38 53° W 21:20:52 10° NNW
Envisat 4.0 21:14:35 10° SE 21:18:56 29° ENE 21:23:17 10° N
Helios 1B rocket 4.2 21:15:16 10° N 21:19:05 37° WNW 21:22:52 10° SW
Meteor 2-16 Rocket 4.4 21:17:21 10° S 21:23:26 85° E 21:29:32 10° N
Cosmos 1821 Rocket 4.1 21:17:48 10° SSW 21:23:55 78° W 21:30:02 10° N
Cosmos 1605 Rocket 4.0 21:20:36 10° S 21:26:52 66° E 21:33:04 10° NNE
Iridium 4 Rocket 3.6 21:26:36 10° N 21:31:38 49° E 21:36:12 10° SSE
YAOGAN 11 4.4 21:28:02 10° SSE 21:32:25 53° ENE 21:36:46 10° N
Okean 2 4.1 21:28:34 10° NNW 21:32:41 57° W 21:36:44 10° S
NOSS 7 (E) 4.3 21:29:41 10° SSW 21:33:07 83° SE 21:36:31 10° NE
Cosmos 1975 3.1 21:30:05 10° SSE 21:34:01 47° E 21:37:58 10° NNE
DELTA 2 R/B (1) 3.8 21:31:41 10° W 21:37:07 55° S 21:41:10 18° ESE
NOSS 7 (H) 4.3 21:39:40 10° SSW 21:42:56 59° ESE 21:46:21 10° NE
Lacrosse 5 rocket 0.9 21:39:14 10° NW 21:42:59 85° NE 21:45:09 23° SE
BREEZE-M DEB (TANK) 4.4 21:26:24 10° SW 21:43:38 52° SSE 21:48:16 12° E
BREEZE-M DEB (TANK) 2.5 21:43:28 10° NW 21:45:29 37° NNE 21:47:27 18° E
H-2A R/B 2.8 21:43:40 21° ESE 21:45:42 32° ENE 21:49:24 10° N
Cosmos 1626 Rocket 3.5 21:44:04 10° N 21:48:31 83° E 21:52:46 11° S
Cosmos 1697 Rocket 3.1 21:43:43 10° S 21:48:52 38° ESE 21:54:02 10° NE
H-2A R/B 4.1 21:46:18 10° SSW 21:49:56 40° W 21:53:40 10° NNW
ALOS 3.6 21:45:48 10° SSW 21:50:10 39° W 21:54:34 10° NNW
EO 1 Delta rocket 4.4 21:45:57 10° N 21:50:32 64° WNW 21:55:39 10° SSW
Cosmos 2278 3.8 21:45:41 10° SSW 21:51:22 80° WNW 21:57:06 10° NNE
ERS-1 Rocket 2.9 21:47:45 12° SSE 21:52:22 76° ENE 21:57:24 10° N
deb Chang Zheng 4 4.3 21:49:20 10° NNE 21:53:26 34° E 21:55:41 21° SSE
Cosmos 1455 Rocket 4.0 21:49:50 10° SSW 21:54:01 49° WNW 21:58:15 10° N
Cosmos 1461 3.5 21:50:52 10° NW 21:54:48 49° WSW 21:57:43 16° S
Cosmos 1898 Rocket 3.6 21:50:53 10° NNW 21:56:09 61° ENE 21:59:26 23° SE
Cosmos 1602 Rocket 3.6 21:52:28 10° N 21:56:58 81° W 22:01:15 11° S
Meteor 1-12 Rocket 4.4 21:57:01 10° SSW 22:02:44 82° W 22:08:37 10° N
Cosmos 1763 Rocket 4.4 22:04:14 25° E 22:04:19 25° E 22:08:24 10° NE
Cosmos 2369 4.0 21:59:05 10° SSW 22:04:44 71° WNW 22:10:27 10° NNE
Cosmos 1939 Rocket 2.9 22:03:34 21° SSE 22:06:15 87° ENE 22:10:26 10° NNW
SL-24 R/B - RUBIN 2 4.3 22:04:09 10° SSW 22:09:58 71° ESE 22:16:28 10° NE
Cosmos 1980 Rocket 2.7 22:08:26 23° SSE 22:11:02 35° ESE 22:16:08 10° NE
Cosmos 1459 Rocket 3.9 22:05:51 12° S 22:11:23 59° E 22:17:21 10° NNE
ARGOS 4.0 22:12:23 27° ESE 22:14:09 34° ENE 22:18:57 10° N
Lacrosse 5 2.0 22:11:31 10° NW 22:16:33 64° NE 22:18:37 34° ESE
Cosmos 468 Rocket 3.8 22:11:33 10° S 22:16:37 68° ESE 22:21:43 10° NNE
Cosmos 2084 3.3 22:13:34 10° NW 22:17:38 88° NE 22:18:57 43° SE
Tiangong 1 0.9 22:17:21 10° W 22:20:21 74° SSW 22:20:21 74° SSW
OTV 4 2.8 22:18:34 10° WSW 22:19:48 15° SW 22:19:48 15° SW
Cosmos 1666 4.4 22:22:16 19° NE 22:22:16 19° NE 22:23:53 10° NE
Cosmos 2058 Rocket 4.2 22:21:52 28° ENE 22:21:52 28° ENE 22:25:15 10° NNE
SPOT 5 2.9 22:20:37 33° SSE 22:22:53 70° ENE 22:27:43 10° N
Cosmos 1814 Rocket 3.9 22:19:36 10° S 22:24:54 68° ESE 22:30:11 10° NNE
Cosmos 841 Rocket 4.1 22:25:05 34° E 22:25:05 34° E 22:29:39 10° NE
Meteor 1-21 4.3 22:24:11 10° N 22:29:55 66° ENE 22:32:13 37° SSE
Cosmos 1500 3.9 22:28:22 14° SSW 22:31:28 53° W 22:35:11 10° N
Cosmos 1606 Rocket 3.6 22:31:47 53° SE 22:32:21 58° E 22:36:43 10° NNE
MetOp-B 4.0 22:30:42 37° SSE 22:32:53 76° ENE 22:38:15 10° N
RESURS DK-1 2.2 22:29:27 10° NNW 22:33:36 81° ENE 22:34:13 63° SE
PSLV R/B 4.1 22:36:12 41° NNE 22:36:12 41° NNE 22:38:23 10° N
USA 215 3.7 22:32:14 27° E 22:35:45 53° NNE 22:42:04 10° NW
Cosmos 2227 Rocket 3.9 22:32:20 10° NW 22:37:06 28° WSW 22:41:49 10° SSW
Cosmos 1802 Rocket 4.0 22:32:30 18° S 22:37:30 80° E 22:43:57 10° N
Cosmos 2263 Rocket 3.8 22:34:35 10° N 22:38:34 20° NE 22:39:56 18° ENE
Cosmos 2322 Rocket 3.8 22:45:08 18° ENE 22:45:08 18° ENE 22:47:05 10° NE
CZ-4 SHROUD 4.4 22:43:50 37° N 22:43:50 37° N 22:45:52 10° N
SL-08 R/B 4.5 22:40:20 36° SSE 22:42:49 62° E 22:48:53 10° NNE
Cosmos 1340 2.5 22:40:57 10° N 22:44:44 88° WNW 22:44:44 88° WNW
Cosmos 1656 4.2 22:39:32 10° SW 22:45:04 58° WNW 22:50:34 10° NNE
SL-08 RB Rocket 4.0 22:45:33 49° E 22:45:46 49° ENE 22:50:15 10° N
Cosmos 2360 4.3 22:48:34 50° ESE 22:48:48 50° ESE 22:54:20 10° NE
Meteor 2-9 Rocket 4.2 22:52:15 55° ESE 22:52:44 57° E 22:58:03 10° NNE
Cosmos 2297 Rocket 3.8 22:47:57 10° NW 22:52:46 29° WSW 22:56:28 15° SSW
SL-19 R/B 4.0 22:48:25 10° NNE 22:53:57 71° ESE 22:55:05 54° SSE
Cosmos 2016 Rocket 3.9 22:52:14 29° S 22:55:35 89° W 23:01:49 10° N
Cosmos 2227 4.1 22:50:23 10° NNW 22:56:11 79° ENE 22:57:20 58° SE
Cosmos 1726 Rocket 3.4 22:56:28 85° S 22:56:35 89° ESE 23:01:01 10° N
Envisat 4.3 22:54:38 18° SSW 22:57:49 36° W 23:02:30 10° NNW
YAOGAN 6 3.2 22:58:34 55° W 22:58:34 55° W 23:02:03 10° NNW
H-2A R/B 2.5 23:00:30 43° ENE 23:00:30 43° ENE 23:05:01 10° N
Terra 2.7 23:02:30 35° NE 23:02:30 35° NE 23:06:20 10° N
Cosmos 1937 Rocket 4.1 22:57:21 10° NNW 23:02:26 50° WSW 23:04:02 37° SSW
ASTEX 1 3.6 22:58:54 10° N 23:03:53 68° W 23:05:29 42° SSW
Cosmos 1743 3.9 23:03:30 33° WSW 23:04:33 40° WNW 23:08:17 10° N
Cosmos 2098 Rocket 4.0 23:07:38 38° S 23:10:35 90° E 23:16:35 10° N
GEOS 3 Rocket 4.3 23:08:06 10° NE 23:11:27 40° ENE 23:11:27 40° ENE
Cosmos 1953 Rocket 4.4 23:13:29 10° NNW 23:17:43 45° W 23:18:06 44° WSW
SPOT 1/Viking Rocket 3.8 23:18:32 56° SW 23:19:15 62° WSW 23:24:26 10° NNW
H-2A R/B 4.0 23:20:48 20° WSW 23:21:47 21° W 23:24:59 10° NW
Cosmos 1864 Rocket 4.4 23:21:48 56° SSW 23:23:14 83° W 23:29:23 10° N
CZ-4B R/B 3.4 23:18:28 10° NNE 23:22:56 76° NNW 23:22:56 76° NNW
Tsikada Rocket 4.0 23:17:31 10° N 23:23:58 80° W 23:25:17 59° SSW
Cosmos 1842 4.5 23:21:23 10° NNW 23:24:19 40° NW 23:24:19 40° NW
Cosmos 1697 Rocket 4.2 23:27:42 10° WSW 23:32:51 35° NW 23:38:00 10° N
SL-16 R/B 2.9 23:39:10 42° NE 23:39:10 42° NE 23:42:57 10° NNE
Cosmos 2228 4.3 23:42:45 39° NNW 23:42:45 39° NNW 23:45:42 10° N
Cosmos 1125 Rocket 3.8 23:39:16 10° NNW 23:43:49 63° WNW 23:43:49 63° WNW
Cosmos 2346 Rocket 4.4 23:45:04 10° N 23:51:09 85° N 23:51:09 85° N
ARGOS 4.3 23:53:54 33° WSW 23:54:20 34° W 23:59:13 10° NNW
